Location: Nordegg
(52.4712°N, 116.0743°W)
Time: 13:28:13
(UTC+00:00)

Envisat - Pass Details

Date: 09 December 2021
Orbit: 764 x 766 km, 98.2° (Epoch: 26 January)

Event Time Altitude Azimuth Distance (km) Brightness Sun altitude
Rises 14:03:46 0° 9° (N) 3,248 6.1 -14.0°
Reaches altitude 10° 14:06:17 10° 359° (N) 2,317 5.3 -13.7°
Maximum altitude 14:10:45 32° 298° (WNW) 1,309 3.7 -13.0°
Drops below altitude 10° 14:15:11 10° 237° (WSW) 2,303 5.1 -12.4°
Sets 14:17:41 0° 228° (SW) 3,224 6.0 -12.0°
